Oroville, Washington, United States (98844)
Lat: 48.94N, Lon: 119.43W
Wx Zone: WAZ043
Local Info
Past Weather Observations for Today

NOTE: This archive is for the closest National Weather Service station to Oroville. Information may differ from the station used for current weather conditions.

Click here for Long-term Archive

Time Weather Temperature Dewpoint Humidity Pressure Winds Precip Visibility
17:25
Overcast
Light Rain
50°F / 10°C 48°F / 9°C 94% 29.68 in
(1005 mb)
Calm 0.04 in
(1.02 mm)
7SM
16:53
Overcast
Rain
50°F / 10°C 48°F / 9°C 94% 29.71 in
(1006 mb)
Calm 0.05 in
(1.27 mm)
6SM
15:53
Overcast
Light Rain
50°F / 10°C 48°F / 9°C 94% 29.74 in
(1007 mb)
SW 4.6 mph
(SW 7 kph)
0.05 in
(1.27 mm)
10SM
14:53
Overcast
Light Rain
50°F / 10°C 48°F / 9°C 94% 29.77 in
(1008 mb)
SSE 6.9 mph
(SSE 11 kph)
0.04 in
(1.02 mm)
8SM
13:53
Overcast
Light Rain
50°F / 10°C 48°F / 9°C 94% 29.77 in
(1008 mb)
S 5.8 mph
(S 9 kph)
0.07 in
(1.78 mm)
7SM
12:53
Overcast
Light Rain
48°F / 9°C 46°F / 8°C 94% 29.8 in
(1009 mb)
S 5.8 mph
(S 9 kph)
0.08 in
(2.03 mm)
7SM
12:16
Overcast
Rain
48°F / 9°C 46°F / 8°C 94% 29.83 in
(1010 mb)
SW 4.6 mph
(SW 7 kph)
0.03 in
(0.76 mm)
4SM
11:53
Overcast
Rain
48°F / 9°C 46°F / 8°C 94% 29.83 in
(1010 mb)
SSE 4.6 mph
(SSE 7 kph)
0.12 in
(3.05 mm)
4SM
11:25
Overcast
Rain
48°F / 9°C 46°F / 8°C 94% 29.83 in
(1010 mb)
SSE 6.9 mph
(SSE 11 kph)
0.06 in
(1.52 mm)
4SM
11:12
Overcast
Rain
48°F / 9°C 46°F / 8°C 94% 29.83 in
(1010 mb)
SSE 5.8 mph
(SSE 9 kph)
0.03 in
(0.76 mm)
5SM
10:53
Overcast
Rain
48°F / 9°C 46°F / 8°C 94% 29.83 in
(1010 mb)
SSE 5.8 mph
(SSE 9 kph)
0.04 in
(1.02 mm)
5SM
09:53
Overcast
Light Rain
48°F / 9°C 45°F / 7°C 87% 29.83 in
(1010 mb)
S 6.9 mph
(S 11 kph)
0.05 in
(1.27 mm)
7SM
08:53
Overcast
Light Rain
48°F / 9°C 45°F / 7°C 87% 29.83 in
(1010 mb)
SSE 5.8 mph
(SSE 9 kph)
0.00 in
(0.00 mm)
10SM
07:53
Overcast
48°F / 9°C 45°F / 7°C 87% 29.83 in
(1010 mb)
SW 6.9 mph
(SW 11 kph)
0.01 in
(0.25 mm)
10SM
06:53
Overcast
Light Rain
46°F / 8°C 45°F / 7°C 93% 29.83 in
(1010 mb)
SSE 6.9 mph
(SSE 11 kph)
0.04 in
(1.02 mm)
10SM
05:53
Overcast
Rain
46°F / 8°C 45°F / 7°C 93% 29.83 in
(1010 mb)
S 8.1 mph
(S 13 kph)
0.05 in
(1.27 mm)
9SM
04:53
Overcast
Light Rain
48°F / 9°C 45°F / 7°C 87% 29.83 in
(1010 mb)
SW 9.2 mph
(SW 15 kph)
0.01 in
(0.25 mm)
10SM
03:53
Overcast
Light Rain
46°F / 8°C 45°F / 7°C 93% 29.83 in
(1010 mb)
SSE 10.4 mph
(SSE 17 kph)
0.02 in
(0.51 mm)
10SM
02:53
Overcast
Light Rain
48°F / 9°C 41°F / 5°C 76% 29.86 in
(1011 mb)
SW 10.4 mph
(SW 17 kph)
0.00 in
(0.00 mm)
10SM
01:53
Overcast
48°F / 9°C 41°F / 5°C 76% 29.86 in
(1011 mb)
SSE 9.2 mph
(SSE 15 kph)
- 10SM
00:53
Clear
48°F / 9°C 39°F / 4°C 71% 29.89 in
(1012 mb)
SW 8.1 mph
(SW 13 kph)
- 10SM
Time Weather Temperature Dewpoint Humidity Pressure Winds Precip Visibility


Weather for websites

WeatherForYou.com, LLC is not responsible for any damages or problems caused by this service. Current weather conditions are obtained from the closest station including government and personal stations which may have varying degrees of accuracy. Weather forecasts are derived from the NOAA NDFD. Like all things, this site belongs to Jesus Christ... He just trusts me to maintain it. If you have any questions or comments email webmaster@weatherforyou.com

Copyright © 2014, WeatherForYou.com LLC. All rights reserved.